N39YL KSAN-KLAX

Flight info

Callsign N39YL
Flight time 0h 29m
Altitude 10000
Route CWARD2 SLI VISTA3
Aircraft BE9L/L-VGDW/C

Departure

Time 2026-05-04 19:16
Airport San Diego International Airport (KSAN)

Arrival

Time 2026-05-04 19:45
Airport Los Angeles International Airport (KLAX)
Time Latitude Longitude Altitude Speed Heading
2026-05-04 19:04 32.73427 -117.18525 20 ft 0 kts 196°
2026-05-04 19:12 32.73421 -117.18527 20 ft 4 kts 196°
2026-05-04 19:12 32.73360 -117.18516 20 ft 14 kts 119°
2026-05-04 19:13 32.73322 -117.18365 20 ft 23 kts 107°
2026-05-04 19:13 32.73273 -117.18159 20 ft 28 kts 105°
2026-05-04 19:13 32.73216 -117.17921 20 ft 31 kts 106°
2026-05-04 19:13 32.73148 -117.17667 20 ft 33 kts 117°
2026-05-04 19:14 32.73090 -117.17547 20 ft 0 kts 140°
2026-05-04 19:14 32.73071 -117.17530 20 ft 9 kts 149°
2026-05-04 19:14 32.73016 -117.17567 20 ft 0 kts 283°
2026-05-04 19:15 32.73023 -117.17599 20 ft 28 kts 286°
2026-05-04 19:15 32.73160 -117.18175 20 ft 104 kts 285°
2026-05-04 19:15 32.73382 -117.19083 232 ft 122 kts 285°
2026-05-04 19:15 32.73642 -117.20121 469 ft 141 kts 285°
2026-05-04 19:16 32.74064 -117.21243 733 ft 159 kts 304°
2026-05-04 19:16 32.74701 -117.22359 985 ft 169 kts 302°
2026-05-04 19:16 32.75365 -117.23549 1242 ft 176 kts 301°
2026-05-04 19:16 32.76051 -117.24788 1495 ft 181 kts 301°
2026-05-04 19:17 32.76749 -117.26051 1748 ft 184 kts 301°
2026-05-04 19:17 32.77445 -117.27314 1995 ft 185 kts 301°
2026-05-04 19:17 32.78152 -117.28599 2245 ft 187 kts 301°
2026-05-04 19:17 32.78860 -117.29884 2546 ft 184 kts 301°
2026-05-04 19:18 32.79552 -117.31143 2934 ft 179 kts 300°
2026-05-04 19:18 32.80268 -117.32310 3354 ft 174 kts 303°
2026-05-04 19:18 32.80996 -117.33446 3665 ft 175 kts 303°
2026-05-04 19:18 32.81743 -117.34604 3936 ft 178 kts 303°
2026-05-04 19:19 32.82504 -117.35785 4188 ft 182 kts 303°
2026-05-04 19:19 32.83280 -117.36987 4440 ft 184 kts 303°
2026-05-04 19:19 32.84063 -117.38201 4691 ft 185 kts 303°
2026-05-04 19:19 32.84842 -117.39410 4939 ft 187 kts 303°
2026-05-04 19:20 32.85633 -117.40637 5189 ft 188 kts 303°
2026-05-04 19:20 32.86430 -117.41876 5441 ft 188 kts 303°
2026-05-04 19:20 32.87234 -117.43121 5693 ft 189 kts 303°
2026-05-04 19:20 32.88039 -117.44374 5946 ft 190 kts 303°
2026-05-04 19:21 32.88838 -117.45616 6196 ft 190 kts 303°
2026-05-04 19:21 32.89646 -117.46873 6448 ft 191 kts 303°
2026-05-04 19:21 32.90461 -117.48139 6702 ft 191 kts 303°
2026-05-04 19:21 32.91265 -117.49389 6953 ft 191 kts 303°
2026-05-04 19:22 32.92085 -117.50665 7208 ft 192 kts 303°
2026-05-04 19:22 32.92891 -117.51919 7459 ft 192 kts 303°
2026-05-04 19:22 32.93708 -117.53192 7713 ft 193 kts 303°
2026-05-04 19:22 32.94522 -117.54462 7933 ft 195 kts 303°
2026-05-04 19:23 32.95367 -117.55781 7980 ft 205 kts 304°
2026-05-04 19:23 32.96259 -117.57168 7985 ft 214 kts 303°
2026-05-04 19:23 32.97168 -117.58586 7986 ft 220 kts 304°
2026-05-04 19:23 32.98103 -117.60042 7985 ft 224 kts 304°
2026-05-04 19:24 32.99061 -117.61536 7985 ft 226 kts 304°
2026-05-04 19:24 33.00013 -117.63022 7984 ft 228 kts 304°
2026-05-04 19:24 33.00972 -117.64519 7984 ft 229 kts 304°
2026-05-04 19:24 33.01947 -117.66044 7984 ft 230 kts 303°
2026-05-04 19:25 33.02927 -117.67575 7984 ft 231 kts 303°
2026-05-04 19:25 33.03894 -117.69085 7984 ft 231 kts 303°
2026-05-04 19:25 33.04876 -117.70623 7984 ft 232 kts 304°
2026-05-04 19:25 33.05846 -117.72141 7984 ft 232 kts 304°
2026-05-04 19:26 33.06974 -117.73537 7987 ft 235 kts 317°
2026-05-04 19:26 33.08210 -117.74809 7984 ft 235 kts 316°
2026-05-04 19:26 33.09464 -117.76089 7984 ft 235 kts 317°
2026-05-04 19:26 33.10696 -117.77342 7980 ft 236 kts 317°
2026-05-04 19:27 33.11953 -117.78621 7979 ft 236 kts 317°
2026-05-04 19:27 33.13193 -117.79882 7978 ft 236 kts 317°
2026-05-04 19:27 33.14455 -117.81168 7978 ft 236 kts 317°
2026-05-04 19:27 33.15693 -117.82426 7977 ft 236 kts 317°
2026-05-04 19:28 33.16943 -117.83702 7975 ft 237 kts 317°
2026-05-04 19:28 33.18197 -117.84981 7975 ft 237 kts 317°
2026-05-04 19:28 33.19519 -117.86168 7961 ft 238 kts 337°
2026-05-04 19:28 33.21106 -117.86626 7978 ft 237 kts 349°
2026-05-04 19:29 33.22188 -117.86892 7977 ft 237 kts 349°
2026-05-04 19:29 33.24351 -117.87429 7977 ft 237 kts 350°
2026-05-04 19:29 33.25951 -117.87824 7976 ft 237 kts 349°
2026-05-04 19:29 33.27560 -117.88226 7975 ft 237 kts 349°
2026-05-04 19:30 33.29192 -117.88632 7977 ft 237 kts 350°
2026-05-04 19:30 33.30798 -117.89032 7974 ft 237 kts 350°
2026-05-04 19:30 33.32417 -117.89434 7975 ft 237 kts 350°
2026-05-04 19:30 33.34016 -117.89833 7975 ft 237 kts 350°
2026-05-04 19:31 33.35631 -117.90237 7979 ft 237 kts 351°
2026-05-04 19:31 33.37247 -117.90640 7976 ft 238 kts 350°
2026-05-04 19:31 33.38845 -117.91098 7975 ft 238 kts 343°
2026-05-04 19:31 33.40446 -117.91673 7901 ft 241 kts 345°
2026-05-04 19:32 33.42061 -117.92254 7746 ft 246 kts 345°
2026-05-04 19:32 33.43711 -117.92853 7599 ft 249 kts 343°
2026-05-04 19:32 33.45356 -117.93452 7454 ft 250 kts 344°
2026-05-04 19:32 33.47031 -117.94054 7299 ft 251 kts 344°
2026-05-04 19:33 33.48711 -117.94667 7143 ft 252 kts 343°
2026-05-04 19:33 33.50394 -117.95277 7006 ft 252 kts 343°
2026-05-04 19:33 33.52057 -117.95886 6972 ft 248 kts 344°
2026-05-04 19:33 33.53686 -117.96475 6964 ft 245 kts 343°
2026-05-04 19:34 33.55317 -117.97073 6959 ft 242 kts 344°
2026-05-04 19:34 33.56912 -117.97653 6957 ft 241 kts 343°
2026-05-04 19:34 33.58524 -117.98240 6956 ft 240 kts 343°
2026-05-04 19:34 33.60123 -117.98823 6951 ft 239 kts 343°
2026-05-04 19:35 33.61700 -117.99397 6950 ft 239 kts 343°
2026-05-04 19:35 33.63282 -117.99976 6948 ft 239 kts 343°
2026-05-04 19:35 33.64858 -118.00551 6947 ft 232 kts 343°
2026-05-04 19:35 33.66386 -118.01110 6947 ft 232 kts 343°
2026-05-04 19:36 33.67922 -118.01675 6947 ft 232 kts 342°
2026-05-04 19:36 33.69463 -118.02305 6842 ft 240 kts 341°
2026-05-04 19:36 33.71084 -118.02985 6596 ft 249 kts 340°
2026-05-04 19:36 33.72727 -118.03680 6352 ft 254 kts 340°
2026-05-04 19:37 33.74395 -118.04390 6155 ft 255 kts 340°
2026-05-04 19:37 33.76069 -118.05100 5989 ft 254 kts 340°
2026-05-04 19:37 33.77747 -118.05814 5829 ft 254 kts 340°
2026-05-04 19:37 33.79405 -118.06519 5716 ft 252 kts 340°
2026-05-04 19:38 33.81040 -118.07215 5595 ft 251 kts 340°
2026-05-04 19:38 33.82691 -118.07916 5471 ft 250 kts 340°
2026-05-04 19:38 33.83773 -118.08376 5391 ft 250 kts 340°
2026-05-04 19:38 33.85969 -118.09312 5228 ft 249 kts 341°
2026-05-04 19:39 33.87592 -118.10001 5109 ft 249 kts 340°
2026-05-04 19:39 33.88662 -118.10458 5055 ft 247 kts 340°
2026-05-04 19:39 33.90353 -118.10766 4983 ft 247 kts 358°
2026-05-04 19:39 33.92616 -118.11016 4950 ft 242 kts 340°
2026-05-04 19:40 33.93573 -118.11678 4966 ft 238 kts 323°
2026-05-04 19:40 33.94901 -118.12854 4939 ft 238 kts 320°
2026-05-04 19:40 33.96304 -118.14893 4687 ft 237 kts 282°
2026-05-04 19:40 33.96346 -118.16155 4653 ft 228 kts 256°
2026-05-04 19:41 33.95931 -118.17602 4611 ft 223 kts 246°
2026-05-04 19:41 33.95629 -118.19450 4480 ft 228 kts 261°
2026-05-04 19:41 33.95372 -118.21996 4343 ft 227 kts 259°
2026-05-04 19:41 33.95192 -118.23820 3865 ft 217 kts 259°
2026-05-04 19:42 33.95016 -118.25573 3159 ft 210 kts 260°
2026-05-04 19:42 33.94843 -118.27292 2370 ft 208 kts 260°
2026-05-04 19:42 33.94676 -118.28966 1928 ft 188 kts 261°
2026-05-04 19:42 33.94533 -118.30396 1865 ft 157 kts 259°
2026-05-04 19:43 33.94408 -118.31606 1690 ft 139 kts 260°
2026-05-04 19:43 33.94331 -118.32371 1488 ft 135 kts 261°
2026-05-04 19:43 33.94222 -118.33459 1186 ft 129 kts 261°
2026-05-04 19:43 33.94083 -118.34834 887 ft 114 kts 261°
2026-05-04 19:44 33.94025 -118.35428 817 ft 101 kts 262°
2026-05-04 19:44 33.93914 -118.36516 480 ft 96 kts 262°
2026-05-04 19:44 33.93856 -118.37309 288 ft 100 kts 261°
2026-05-04 19:44 33.93794 -118.37845 245 ft 96 kts 260°
2026-05-04 19:45 33.93674 -118.38909 128 ft 85 kts 262°
2026-05-04 19:45 33.93625 -118.39359 128 ft 47 kts 263°
2026-05-04 19:45 33.93595 -118.39621 128 ft 47 kts 262°
2026-05-04 19:45 33.93526 -118.40110 128 ft 39 kts 249°
2026-05-04 19:46 33.93436 -118.40289 128 ft 0 kts 234°
2026-05-04 19:46 33.93436 -118.40290 128 ft 0 kts 234°
2026-05-04 19:46 33.93397 -118.40401 128 ft 30 kts 261°
2026-05-04 19:46 33.93248 -118.40493 128 ft 10 kts 65°
2026-05-04 19:47 33.93242 -118.40475 128 ft 0 kts 167°